Location: ????????
(55.0559°N, 39.1270°E)
Time: 00:34:27
(UTC+00:00)

Sich 1 Rocket - Pass Details

Date: 15 November 2025
Orbit: 611 x 646 km, 82.5° (Epoch: 12 December)

Event Time Altitude Azimuth Distance (km) Brightness Sun altitude
Rises 02:49:40 0° 349° (N) 2,972 6.9 -17.7°
Reaches altitude 10° 02:51:57 10° 352° (N) 2,055 6.1 -17.4°
Maximum altitude 02:56:31 69° 76° (ENE) 690 3.9 -16.7°
Drops below altitude 10° 03:00:59 10° 160° (SSE) 2,021 6.6 -16.1°
Sets 03:03:13 0° 163° (SSE) 2,919 7.4 -15.8°
